Regional Weather Roundup
Issued by NWS Wakefield, VA

Home | Current Version | Previous Version | Graphics & Text | Print | Product List | Glossary On
Versions: 1 2 3 4 5 6 7 8 9 10 11 12 13 14 15 16 17 18 19 20 21 22 23 24 25 26 27 28 29 30 31 32 33 34 35 36 37 38 39 40 41 42 43 44 45 46 47 48 49 50
000
ASUS41 KAKQ 282014
RWRAKQ

REGIONAL WEATHER ROUNDUP
NATIONAL WEATHER SERVICE WAKEFIELD VA
400 PM EDT FRI AUG 28 2015

Note: "fair" indicates few or no clouds below 12,000 feet with no
significant weather and/or obstructions to visibility. * = Denotes
station may not report precipitation (e.g., rain,snow,etc.),
thunder or fog.

VAZ042-051-052>054-056-282100-
NORTHERN VIRGINIA

CITY           SKY/WX    TMP DP  RH WIND       PRES   REMARKS
WASH NATIONAL  PTSUNNY   81  58  45 SE5       30.15F
DULLES         MOSUNNY   80  56  43 W3        30.15F
FORT BELVOIR   MOSUNNY   83  59  43 S2        30.15F
QUANTICO       MOSUNNY   78  59  51 S6        30.16F
FREDERICKSBRG* SUNNY     86  59  40 SW3       30.14F
STAFFORD*      MOSUNNY   82  58  42 NE5       30.19F
WARRENTON      PTSUNNY   85  62  46 W3        30.15F
CULPEPER*      MOSUNNY   81  60  48 CALM      30.15F
MANASSAS*      SUNNY     82  61  47 S5        30.15F
LEESBURG*      SUNNY     82  61  47 W6        30.16F
WINCHESTER     PTSUNNY   82  57  42 SE3       30.16S
FRONT ROYAL*   MOCLDY    82  61  47 E5        30.14F
LURAY*         MOCLDY    81  57  44 E7        30.15F
$$

VAZ048-049-060>072-079>083-282100-
CENTRAL AND SOUTH CENTRAL VIRGINIA

CITY           SKY/WX    TMP DP  RH WIND       PRES   REMARKS
RICHMOND       MOSUNNY   84  59  42 NE6       30.15F
CHESTERFIELD*  CLOUDY    81  54  39 S7        30.17F
PETERSBURG*    MOSUNNY   86  63  45 N6        30.16F
HANOVER        PTSUNNY   84  59  42 CALM      30.17F
TAPPAHANNOCK*  SUNNY     83  52  34 CALM      30.16F
QUINTON*       FAIR      81  61  49 E7        30.16F
CHARLOTTSVILLE MOSUNNY   82  61  48 S8        30.15F
GORDONSVILLE*  FAIR      83  61  47 SW5       30.15S
ORANGE*        PTSUNNY   86  61  42 E5        30.16F
LOUISA*        MOSUNNY   81  59  47 CALM      30.15F
BUMPASS*       FAIR      81  60  48 SE3       30.16F
FARMVILLE*     SUNNY     83  56  39 S3        30.14F
CREWE*         MOCLDY   N/A N/A N/A CALM      30.16F
FORT PICKETT*  MOCLDY    83  59  43 NE3       30.16F
CHASE CITY*    CLOUDY    87  61  41 CALM      30.15F
CLARKSVILLE*   FAIR      84  59  42 E6        30.16F
SOUTH HILL*    MOSUNNY   82  60  47 CALM      30.21F
LAWRENCEVILLE* FAIR      82  61  47 NE3       30.16S
EMPORIA*       MOSUNNY   82  57  42 N5        30.17S
$$

VAZ088>098-282100-
SOUTHEAST VIRGINIA

CITY           SKY/WX    TMP DP  RH WIND       PRES   REMARKS
NORFOLK        SUNNY     80  56  43 NE10      30.16F
VIRGINIA BEACH MOSUNNY   82  58  43 E10       30.16F
NORFOLK NAVAL  MOSUNNY   81  56  42 NE12      30.18F
WEST POINT*    MOSUNNY   86  51  29 NE6       30.17F
SALUDA*        FAIR      78  59  50 E8        30.17F
NEWPORT NEWS   SUNNY     83  55  38 E10       30.16F
LANGLEY AFB    SUNNY     82  54  38 E8        30.15F
FORT EUSTIS    MOSUNNY   82  58  43 VRB7      30.14F
WILLIAMSBURG*  SUNNY     84  64  51 CALM      30.16F
HR EXEC AP*      N/A     84  55  37 NE7       30.17F
FRANKLIN*      SUNNY     82  59  45 E6        30.15F
WAKEFIELD      MOSUNNY   84  58  40 VRB3      30.15F
$$

VAZ020-022-025-037-045-282100-
WEST CENTRAL AND SOUTHWEST VIRGINIA

CITY           SKY/WX    TMP DP  RH WIND       PRES   REMARKS
STAUNTON*      PTSUNNY   86  54  33 S8        30.18S
WAYNESBORO*    FAIR      82  61  49 S5        30.18F
HOT SPRINGS VA PTSUNNY   73  58  61 S5        30.27F
LYNCHBURG      PTSUNNY   80  57  45 CALM      30.18F
DANVILLE       SUNNY     86  58  38 NE6       30.16F
SOUTH BOSTON*  FAIR      83  55  38 CALM      30.15F
MARTINSVILLE   PTSUNNY   86  56  36 CALM      30.19F
ROANOKE        MOSUNNY   81  59  47 SE9       30.17F
BLACKSBURG     MOSUNNY   81  58  46 CALM      30.23F
DUBLIN*        CLOUDY    79  59  51 E3        30.21F
MARION*        PTSUNNY   80  57  45 S3        30.24F
HILLSVILLE*    MOSUNNY   74  60  62 S6        30.23F
RICHLANDS*     FAIR      78  13   8 SW3       30.22F
WISE*          CLOUDY    81  57  44 NE6       30.23F
ABINGDON*      SUNNY     83  54  36 CALM      30.18F
$$

MDZ021>025-VAZ099-100-282100-
SOUTHERN MARYLAND AND THE DELMARVA PENINSULA

CITY           SKY/WX    TMP DP  RH WIND       PRES   REMARKS
PATUXENT RIVER MOSUNNY   78  58  49 E8        30.16F
BAY BRIDGE APT   N/A     79  52  38 SE3       30.16F
LEONARDTOWN    PTSUNNY   79  57  47 SE3       30.18F
DOVER          MOSUNNY   80  61  50 E7        30.14F
GEORGETOWN     PTSUNNY   80  54  40 NE7       30.16F
EASTON         MOSUNNY   82  57  42 NW9       30.20F
CAMBRIDGE      SUNNY     81  54  39 N6        30.16F
SALISBURY      MOSUNNY   83  56  39 VRB3      30.16F
OCEAN CITY     SUNNY     78  56  46 E10       30.17S
WALLOPS ISLAND MOSUNNY   79  56  45 E8        30.17F
ACCOMACK*      PTSUNNY  N/A N/A N/A N5        30.17S
$$

NCZ012>017-030>032-282100-
NORTH CENTRAL AND EASTERN NORTH CAROLINA

CITY           SKY/WX    TMP DP  RH WIND       PRES   REMARKS
ROANOKE RAPIDS FAIR      82  55  39 NE6       30.14F
RALEIGH        PTSUNNY   86  55  34 CALM      30.15F
ELIZABETH CITY MOSUNNY   81  61  50 NE10      30.15F
AHOSKIE*       SUNNY     82  58  42 N8        30.14F
EDENTON*       MOSUNNY   82  60  46 NE10      30.15F
CURRITUCK*     NOT AVBL
KILL DEVIL HLS MOSUNNY   82  62  50 N8        30.14S
MANTEO         MOSUNNY   79  63  58 NE14G20   30.15F
CAPE HATTERAS  MOSUNNY   80  66  62 NE12G21   30.13S
TARBORO*       FAIR      87  55  33 N3        30.14F
GOLDSBORO      PTSUNNY   84  61  46 NE10      30.12F
WASHINGTON     MOSUNNY   82  60  46 E9        30.14F
GREENVILLE     MOSUNNY   82  61  47 E6        30.15F
NEW BERN       PTSUNNY   83  61  47 NE15      30.14F
WILMINGTON     MOSUNNY   83  65  54 NE8       30.12F
$$

VAZ048-282100-
ELSEWHERE

CITY           SKY/WX    TMP DP  RH WIND       PRES   REMARKS
HARRISBURG PA  MOSUNNY   81  55  40 CALM      30.15F
BALTIMORE      MOSUNNY   81  56  42 VRB3      30.14F
ANNAPOLIS      SUNNY     77  59  53 SE8       30.15F
ANDREWS AFB    PTSUNNY   80  57  44 NE7       30.15F
PHILADELPHIA   MOSUNNY   82  53  36 N7        30.15F
HENDERSON NC   SUNNY     83  50  31 NE7       30.16F
GREENSBORO     PTSUNNY   81  55  40 CALM      30.16F
ROCKY MOUNT    MOSUNNY   87  55  33 N8        30.14F
$$

VAZ100-282100-
MARINE

STATION/POSITION TIME  TEMP    WIND        PRES    WAVE   SWELL
                       AIR SEA DIR/SP/G            HT/PER HT/PER
                 (UTC) (F)     (DEG/KT/KT) (MB)    (FT/S) (FT/S)
15NM E FENWICK I 1950   74 79  360/  2/  4 1021.9F   3/10   3/10
THOMAS POINT MD  2000   76     150/  4     1021.7F
CHESAPEAKE LGHT  1900   75      50/ 11/ 12 1022.5F
CAPE HENRY BUOY  1928      79                N/A     3/11   2/11
CAPE CHARLES BUO 1926      79                N/A     3/10   3/10
OFFSHORE WE BUOY 1911      78                N/A     4/12   3/12
64NM E OF VA BCH 1950   77 80   20/ 14/ 17 1020.2F   4/10   3/10
44100 DUCK FRF   1924      78                N/A     4/11   2/11
44056 DUCK FRF   1911      79                N/A     4/11   2/11
DIAMOND SHLS NC  1950   79 83   30/ 17/ 21 1019.5F   5/ 8   3/ 8
CAPE LOOKOUT NC  2000   79      40/ 18/ 20 1019.6F
$$


USA.gov is the U.S. government's official web portal to all federal, state and local government web resources and services.